カタログに戻る

STARLINK-36333

運用中通信VLEO
NORAD 68256·PAYLOAD·🇺🇸 United States

打ち上げ Mar 17, 2026 から Vandenberg Space Force Base

Loading…

次のパス (今後24時間)

TLE

最新Source: CelesTrak SupGP

元期: Sep 14, 2026, 22:56 UTC

1 68256C 26054AA  26257.95604167 -.00058515  00000+0 -17291-2 0  2578
2 68256  53.1575 135.7343 0001250  85.6838  75.9611 15.34415151    17

AllMySatでSTARLINK-36333をリアルタイム追跡

Download on the App Store